This is the latest recevied weather packets stored in our database for station/object EA5LU-10. If no packets are shown the sender has not sent any weather packets the latest 10 day(s).
| Time | Temp. | Humidity | Pressure | Rain* | Wind** | Luminosity | Snow |
|---|---|---|---|---|---|---|---|
| 1777795652 | 19.44° C | 76% | 1007.1 hPa | - | - | - | - |
| 1777794751 | 18.89° C | 78% | 1007 hPa | - | - | - | - |
| 1777793850 | 18.33° C | 78% | 1007.1 hPa | - | - | - | - |
| 1777792949 | 18.33° C | 79% | 1007.1 hPa | - | - | - | - |
| 1777792048 | 17.78° C | 80% | 1007.1 hPa | - | - | - | - |
| 1777791148 | 18.33° C | 79% | 1007 hPa | - | - | - | - |
| 1777790247 | 18.33° C | 79% | 1006.6 hPa | - | - | - | - |
| 1777789346 | 18.33° C | 79% | 1006.5 hPa | - | - | - | - |
| 1777788445 | 18.33° C | 80% | 1006.3 hPa | - | - | - | - |
| 1777787544 | 17.78° C | 80% | 1006.6 hPa | - | - | - | - |
| 1777786643 | 17.78° C | 81% | 1006.6 hPa | - | - | - | - |
| 1777785743 | 17.78° C | 81% | 1006.3 hPa | - | - | - | - |
| 1777784842 | 17.78° C | 81% | 1006.2 hPa | - | - | - | - |
| 1777783941 | 17.78° C | 81% | 1006.1 hPa | - | - | - | - |
| 1777783040 | 17.78° C | 81% | 1006.2 hPa | - | - | - | - |
| 1777782139 | 17.78° C | 81% | 1006 hPa | - | - | - | - |
| 1777781239 | 17.78° C | 81% | 1005.9 hPa | - | - | - | - |
| 1777780338 | 17.78° C | 81% | 1005.7 hPa | - | - | - | - |
| 1777779437 | 17.22° C | 81% | 1005.6 hPa | - | - | - | - |
| 1777778536 | 17.78° C | 80% | 1005.7 hPa | - | - | - | - |
| 1777777635 | 18.33° C | 78% | 1005.6 hPa | - | - | - | - |
| 1777776734 | 18.89° C | 77% | 1005.3 hPa | - | - | - | - |
| 1777775833 | 18.33° C | 77% | 1005.1 hPa | - | - | - | - |
| 1777774932 | 18.33° C | 78% | 1005.1 hPa | - | - | - | - |
| 1777774032 | 18.33° C | 78% | 1005.4 hPa | - | - | - | - |
* Rain since midnight (hover to see other rain measurements)
** Current wind speed in m/s (hover to see current wind gust speed)